TimeCST,TemperatureF,Dew PointF,Humidity,Sea Level PressureIn,VisibilityMPH,Wind Direction,Wind SpeedMPH,Gust SpeedMPH,PrecipitationIn,Events,Conditions,WindDirDegrees,DateUTC
12:53 AM,1.0,-5.1,75,30.34,10.0,NW,5.8,-,N/A,,Clear,320,2013-01-26 06:53:00
1:53 AM,1.0,-5.1,75,30.35,10.0,NW,4.6,-,N/A,,Clear,320,2013-01-26 07:53:00
2:53 AM,-0.0,-5.1,79,30.36,10.0,NNW,4.6,-,N/A,,Clear,330,2013-01-26 08:53:00
3:53 AM,-0.9,-6.0,79,30.37,10.0,NW,3.5,-,N/A,,Clear,320,2013-01-26 09:53:00
4:53 AM,-0.0,-6.0,76,30.36,10.0,Calm,Calm,-,N/A,,Clear,0,2013-01-26 10:53:00
5:53 AM,-0.4,-5.8,78,30.29,10.0,Calm,Calm,-,N/A,,Clear,0,2013-01-26 11:53:00
6:53 AM,1.0,-6.0,72,30.39,10.0,Calm,Calm,-,N/A,,Clear,0,2013-01-26 12:53:00
7:53 AM,1.0,-5.1,75,30.38,10.0,Calm,Calm,-,N/A,,Clear,0,2013-01-26 13:53:00
8:53 AM,6.1,-0.9,73,30.40,10.0,SE,3.5,-,N/A,,Clear,130,2013-01-26 14:53:00
9:53 AM,12.0,3.0,67,30.38,10.0,SE,11.5,-,N/A,,Clear,140,2013-01-26 15:53:00
10:53 AM,15.1,3.0,59,30.39,10.0,SE,10.4,-,N/A,,Scattered Clouds,140,2013-01-26 16:53:00
11:53 AM,18.0,3.9,54,30.36,10.0,SSE,15.0,-,N/A,,Overcast,150,2013-01-26 17:53:00
12:53 PM,19.9,3.9,50,30.32,10.0,SSE,13.8,19.6,N/A,,Overcast,150,2013-01-26 18:53:00
1:53 PM,23.0,5.0,46,30.28,10.0,SE,13.8,-,N/A,,Overcast,140,2013-01-26 19:53:00
2:53 PM,25.0,6.1,45,30.27,10.0,SSE,17.3,-,N/A,,Overcast,150,2013-01-26 20:53:00
3:53 PM,25.0,6.1,45,30.25,10.0,SE,15.0,-,N/A,,Overcast,130,2013-01-26 21:53:00
4:53 PM,25.0,7.0,46,30.23,10.0,SE,16.1,-,N/A,,Overcast,130,2013-01-26 22:53:00
5:53 PM,25.0,7.0,46,30.21,10.0,SE,17.3,-,N/A,,Overcast,140,2013-01-26 23:53:00
6:53 PM,25.0,8.1,49,30.21,10.0,SE,15.0,-,N/A,,Scattered Clouds,140,2013-01-27 00:53:00
7:53 PM,26.1,9.0,49,30.20,10.0,SSE,18.4,25.3,N/A,,Overcast,150,2013-01-27 01:53:00
8:53 PM,26.1,9.0,49,30.20,10.0,SSE,16.1,-,N/A,,Partly Cloudy,150,2013-01-27 02:53:00
9:53 PM,26.1,10.0,51,30.20,10.0,SSE,18.4,26.5,N/A,,Mostly Cloudy,150,2013-01-27 03:53:00
10:53 PM,26.1,10.0,51,30.19,10.0,SSE,20.7,27.6,N/A,,Overcast,160,2013-01-27 04:53:00
11:53 PM,26.1,10.9,53,30.18,10.0,SSE,19.6,25.3,N/A,,Overcast,150,2013-01-27 05:53:00